Time,TemperatureF,DewpointF,PressureIn,WindDirection,WindDirectionDegrees,WindSpeedMPH,WindSpeedGustMPH,Humidity,HourlyPrecipIn,Conditions,Clouds,dailyrainin,SoftwareType,DateUTC
2013-01-08 00:06:00,35.7,31.0,29.90,West,274,7.0,23.0,83,0.00,,,0.00,weatherlink.com 1.10,2013-01-08 05:06:00,
2013-01-08 00:20:00,35.6,31.0,29.90,SW,217,12.0,23.0,84,0.00,,,0.00,weatherlink.com 1.10,2013-01-08 05:20:00,
2013-01-08 00:35:00,35.5,31.0,29.91,WSW,250,7.0,15.0,84,0.00,,,0.00,weatherlink.com 1.10,2013-01-08 05:35:00,
2013-01-08 00:50:00,35.4,31.0,29.91,West,262,9.0,19.0,84,0.00,,,0.00,weatherlink.com 1.10,2013-01-08 05:50:00,
2013-01-08 01:05:00,35.2,31.0,29.91,SW,232,4.0,18.0,85,0.00,,,0.00,weatherlink.com 1.10,2013-01-08 06:05:00,
2013-01-08 01:20:00,35.0,31.0,29.92,West,273,8.0,16.0,85,0.00,,,0.00,weatherlink.com 1.10,2013-01-08 06:20:00,
2013-01-08 01:36:00,34.8,31.0,29.93,West,268,4.0,13.0,85,0.00,,,0.00,weatherlink.com 1.10,2013-01-08 06:36:00,
2013-01-08 01:51:00,34.7,31.0,29.93,WNW,294,5.0,11.0,85,0.00,,,0.00,weatherlink.com 1.10,2013-01-08 06:51:00,
2013-01-08 02:06:00,34.6,31.0,29.93,West,281,10.0,15.0,86,0.00,,,0.00,weatherlink.com 1.10,2013-01-08 07:06:00,
2013-01-08 02:21:00,34.5,31.0,29.94,West,276,4.0,13.0,86,0.00,,,0.00,weatherlink.com 1.10,2013-01-08 07:21:00,
2013-01-08 02:36:00,34.2,31.0,29.95,West,263,5.0,10.0,87,0.00,,,0.00,weatherlink.com 1.10,2013-01-08 07:36:00,
2013-01-08 02:51:00,34.0,31.0,29.95,NW,304,7.0,11.0,87,0.00,,,0.00,weatherlink.com 1.10,2013-01-08 07:51:00,
2013-01-08 03:06:00,33.8,31.0,29.96,West,269,3.0,8.0,88,0.00,,,0.00,weatherlink.com 1.10,2013-01-08 08:06:00,
2013-01-08 03:21:00,33.9,31.0,29.96,WSW,253,5.0,11.0,87,0.00,,,0.00,weatherlink.com 1.10,2013-01-08 08:21:00,
2013-01-08 03:36:00,33.8,30.0,29.96,WSW,242,6.0,11.0,87,0.00,,,0.00,weatherlink.com 1.10,2013-01-08 08:36:00,
2013-01-08 03:51:00,33.6,30.0,29.96,West,267,9.0,11.0,87,0.00,,,0.00,weatherlink.com 1.10,2013-01-08 08:51:00,
2013-01-08 04:06:00,33.4,30.0,29.96,West,271,5.0,9.0,87,0.00,,,0.00,weatherlink.com 1.10,2013-01-08 09:06:00,
2013-01-08 04:21:00,33.3,30.0,29.97,SW,233,4.0,10.0,87,0.00,,,0.00,weatherlink.com 1.10,2013-01-08 09:21:00,
2013-01-08 04:36:00,33.2,30.0,29.97,SW,224,11.0,11.0,88,0.00,,,0.00,weatherlink.com 1.10,2013-01-08 09:36:00,
2013-01-08 04:51:00,33.1,30.0,29.98,West,274,3.0,11.0,88,0.00,,,0.00,weatherlink.com 1.10,2013-01-08 09:51:00,
2013-01-08 05:06:00,32.8,30.0,29.98,West,273,6.0,10.0,88,0.00,,,0.00,weatherlink.com 1.10,2013-01-08 10:06:00,
2013-01-08 05:21:00,32.8,30.0,29.99,WSW,256,2.0,10.0,89,0.00,,,0.00,weatherlink.com 1.10,2013-01-08 10:21:00,
2013-01-08 05:36:00,32.5,30.0,29.99,West,265,3.0,11.0,89,0.00,,,0.00,weatherlink.com 1.10,2013-01-08 10:36:00,
2013-01-08 05:51:00,32.3,30.0,29.99,SW,219,7.0,9.0,89,0.00,,,0.00,weatherlink.com 1.10,2013-01-08 10:51:00,
2013-01-08 06:06:00,32.2,30.0,30.00,West,263,2.0,9.0,90,0.00,,,0.00,weatherlink.com 1.10,2013-01-08 11:06:00,
2013-01-08 06:21:00,32.2,30.0,30.00,WNW,291,4.0,10.0,90,0.00,,,0.00,weatherlink.com 1.10,2013-01-08 11:21:00,
2013-01-08 06:36:00,32.0,29.0,30.02,West,280,0.0,6.0,90,0.00,,,0.00,weatherlink.com 1.10,2013-01-08 11:36:00,
2013-01-08 06:52:00,31.8,29.0,30.02,WSW,255,1.0,7.0,90,0.00,,,0.00,weatherlink.com 1.10,2013-01-08 11:52:00,
2013-01-08 07:07:00,31.5,29.0,30.03,SW,232,0.0,3.0,90,0.00,,,0.00,weatherlink.com 1.10,2013-01-08 12:07:00,
2013-01-08 07:22:00,31.4,29.0,30.04,WSW,248,0.0,4.0,91,0.00,,,0.00,weatherlink.com 1.10,2013-01-08 12:22:00,
2013-01-08 07:37:00,31.7,29.0,30.05,West,262,3.0,5.0,90,0.00,,,0.00,weatherlink.com 1.10,2013-01-08 12:37:00,
2013-01-08 07:52:00,31.8,29.0,30.05,WNW,291,1.0,8.0,90,0.00,,,0.00,weatherlink.com 1.10,2013-01-08 12:52:00,
2013-01-08 08:07:00,31.4,29.0,30.06,WNW,283,2.0,3.0,89,0.00,,,0.00,weatherlink.com 1.10,2013-01-08 13:07:00,
2013-01-08 08:22:00,30.8,28.0,30.07,WSW,252,0.0,4.0,90,0.00,,,0.00,weatherlink.com 1.10,2013-01-08 13:22:00,
2013-01-08 08:37:00,30.2,28.0,30.08,WSW,245,1.0,3.0,91,0.00,,,0.00,weatherlink.com 1.10,2013-01-08 13:37:00,
2013-01-08 08:52:00,30.2,28.0,30.08,West,266,0.0,4.0,91,0.00,,,0.00,weatherlink.com 1.10,2013-01-08 13:52:00,
2013-01-08 09:07:00,30.8,28.0,30.09,West,269,1.0,4.0,90,0.00,,,0.00,weatherlink.com 1.10,2013-01-08 14:07:00,
2013-01-08 09:22:00,31.8,29.0,30.09,West,270,1.0,5.0,88,0.00,,,0.00,weatherlink.com 1.10,2013-01-08 14:22:00,
2013-01-08 09:37:00,32.7,29.0,30.10,WSW,256,3.0,4.0,86,0.00,,,0.00,weatherlink.com 1.10,2013-01-08 14:37:00,
2013-01-08 09:52:00,33.4,29.0,30.10,West,274,1.0,7.0,84,0.00,,,0.00,weatherlink.com 1.10,2013-01-08 14:52:00,
2013-01-08 10:07:00,34.3,29.0,30.11,WNW,293,3.0,7.0,82,0.00,,,0.00,weatherlink.com 1.10,2013-01-08 15:07:00,
2013-01-08 10:22:00,35.1,29.0,30.11,WNW,300,1.0,6.0,79,0.00,,,0.00,weatherlink.com 1.10,2013-01-08 15:22:00,
2013-01-08 10:37:00,35.7,29.0,30.11,NW,318,4.0,6.0,77,0.00,,,0.00,weatherlink.com 1.10,2013-01-08 15:37:00,
2013-01-08 10:52:00,36.2,29.0,30.12,West,280,5.0,6.0,74,0.00,,,0.00,weatherlink.com 1.10,2013-01-08 15:52:00,
2013-01-08 11:07:00,36.7,28.0,30.12,West,265,2.0,7.0,72,0.00,,,0.00,weatherlink.com 1.10,2013-01-08 16:07:00,
2013-01-08 11:22:00,37.5,29.0,30.11,WSW,248,2.0,6.0,70,0.00,,,0.00,weatherlink.com 1.10,2013-01-08 16:22:00,
2013-01-08 11:37:00,38.5,29.0,30.11,WSW,250,1.0,5.0,69,0.00,,,0.00,weatherlink.com 1.10,2013-01-08 16:37:00,
2013-01-08 11:52:00,38.7,30.0,30.11,WNW,294,1.0,8.0,70,0.00,,,0.00,weatherlink.com 1.10,2013-01-08 16:52:00,
2013-01-08 12:07:00,38.9,30.0,30.10,NNW,331,2.0,7.0,71,0.00,,,0.00,weatherlink.com 1.10,2013-01-08 17:07:00,
2013-01-08 12:22:00,39.4,31.0,30.11,West,280,1.0,7.0,71,0.00,,,0.00,weatherlink.com 1.10,2013-01-08 17:22:00,
2013-01-08 12:38:00,39.6,31.0,30.10,WSW,250,4.0,8.0,70,0.00,,,0.00,weatherlink.com 1.10,2013-01-08 17:38:00,
2013-01-08 12:53:00,39.6,31.0,30.10,SSW,208,3.0,8.0,71,0.00,,,0.00,weatherlink.com 1.10,2013-01-08 17:53:00,
2013-01-08 13:08:00,39.5,31.0,30.11,West,280,4.0,6.0,71,0.00,,,0.00,weatherlink.com 1.10,2013-01-08 18:08:00,
2013-01-08 13:23:00,39.3,31.0,30.11,NW,315,3.0,8.0,73,0.00,,,0.00,weatherlink.com 1.10,2013-01-08 18:23:00,
2013-01-08 13:38:00,39.6,31.0,30.10,WNW,289,3.0,8.0,72,0.00,,,0.00,weatherlink.com 1.10,2013-01-08 18:38:00,
2013-01-08 13:53:00,39.4,31.0,30.11,WSW,253,4.0,8.0,72,0.00,,,0.00,weatherlink.com 1.10,2013-01-08 18:53:00,
2013-01-08 14:08:00,39.7,32.0,30.10,WNW,290,3.0,7.0,73,0.00,,,0.00,weatherlink.com 1.10,2013-01-08 19:08:00,
2013-01-08 14:23:00,40.0,31.0,30.10,West,274,3.0,6.0,70,0.00,,,0.00,weatherlink.com 1.10,2013-01-08 19:23:00,
2013-01-08 14:38:00,40.9,32.0,30.10,SE,133,0.0,6.0,70,0.00,,,0.00,weatherlink.com 1.10,2013-01-08 19:38:00,
2013-01-08 14:53:00,42.0,32.0,30.10,WSW,253,0.0,3.0,69,0.00,,,0.00,weatherlink.com 1.10,2013-01-08 19:53:00,
2013-01-08 15:08:00,43.1,32.0,30.10,SW,232,3.0,3.0,65,0.00,,,0.00,weatherlink.com 1.10,2013-01-08 20:08:00,
2013-01-08 15:23:00,42.2,32.0,30.10,SSE,156,1.0,5.0,68,0.00,,,0.00,weatherlink.com 1.10,2013-01-08 20:23:00,
2013-01-08 15:38:00,41.2,32.0,30.11,SSE,149,4.0,5.0,71,0.00,,,0.00,weatherlink.com 1.10,2013-01-08 20:38:00,
2013-01-08 15:53:00,39.9,32.0,30.11,SSE,167,3.0,5.0,74,0.00,,,0.00,weatherlink.com 1.10,2013-01-08 20:53:00,
2013-01-08 16:08:00,38.8,32.0,30.11,SSW,205,1.0,3.0,76,0.00,,,0.00,weatherlink.com 1.10,2013-01-08 21:08:00,
2013-01-08 16:23:00,37.9,32.0,30.11,SE,135,2.0,5.0,78,0.00,,,0.00,weatherlink.com 1.10,2013-01-08 21:23:00,
2013-01-08 16:38:00,36.6,31.0,30.11,SSE,149,2.0,5.0,81,0.00,,,0.00,weatherlink.com 1.10,2013-01-08 21:38:00,
2013-01-08 16:53:00,35.2,31.0,30.11,SE,130,3.0,6.0,85,0.00,,,0.00,weatherlink.com 1.10,2013-01-08 21:53:00,
2013-01-08 17:08:00,34.0,31.0,30.11,SE,133,1.0,5.0,87,0.00,,,0.00,weatherlink.com 1.10,2013-01-08 22:08:00,
2013-01-08 17:23:00,33.1,30.0,30.11,SE,145,3.0,4.0,89,0.00,,,0.00,weatherlink.com 1.10,2013-01-08 22:23:00,
2013-01-08 17:38:00,32.3,30.0,30.11,SE,136,1.0,3.0,91,0.00,,,0.00,weatherlink.com 1.10,2013-01-08 22:38:00,
2013-01-08 17:53:00,32.4,30.0,30.10,East,101,3.0,5.0,92,0.00,,,0.00,weatherlink.com 1.10,2013-01-08 22:53:00,
2013-01-08 18:08:00,32.8,31.0,30.10,ESE,122,4.0,8.0,93,0.00,,,0.00,weatherlink.com 1.10,2013-01-08 23:08:00,
2013-01-08 18:23:00,33.9,32.0,30.10,SE,131,10.0,10.0,93,0.00,,,0.00,weatherlink.com 1.10,2013-01-08 23:23:00,
2013-01-08 18:38:00,34.3,33.0,30.09,ESE,103,8.0,10.0,93,0.00,,,0.00,weatherlink.com 1.10,2013-01-08 23:38:00,
2013-01-08 18:53:00,34.0,32.0,30.08,ESE,114,7.0,11.0,93,0.00,,,0.00,weatherlink.com 1.10,2013-01-08 23:53:00,
2013-01-08 19:08:00,33.7,32.0,30.08,SE,130,7.0,8.0,93,0.00,,,0.00,weatherlink.com 1.10,2013-01-09 00:08:00,
2013-01-08 19:23:00,34.0,32.0,30.07,SE,129,5.0,11.0,93,0.00,,,0.00,weatherlink.com 1.10,2013-01-09 00:23:00,
2013-01-08 19:38:00,34.4,32.0,30.07,SE,142,10.0,10.0,92,0.00,,,0.00,weatherlink.com 1.10,2013-01-09 00:38:00,
2013-01-08 19:53:00,35.0,33.0,30.06,SE,131,5.0,12.0,91,0.00,,,0.00,weatherlink.com 1.10,2013-01-09 00:53:00,
2013-01-08 20:08:00,35.4,33.0,30.05,SE,145,3.0,11.0,89,0.00,,,0.00,weatherlink.com 1.10,2013-01-09 01:08:00,
2013-01-08 20:23:00,35.4,32.0,30.05,SSE,152,3.0,9.0,88,0.00,,,0.00,weatherlink.com 1.10,2013-01-09 01:23:00,
2013-01-08 20:38:00,35.0,32.0,30.04,South,181,2.0,9.0,89,0.00,,,0.00,weatherlink.com 1.10,2013-01-09 01:38:00,
2013-01-08 20:53:00,34.6,32.0,30.04,SE,129,2.0,7.0,89,0.00,,,0.00,weatherlink.com 1.10,2013-01-09 01:53:00,
2013-01-08 21:08:00,34.3,32.0,30.03,ESE,119,2.0,8.0,90,0.00,,,0.00,weatherlink.com 1.10,2013-01-09 02:08:00,
2013-01-08 21:23:00,34.4,32.0,30.03,ESE,122,2.0,8.0,89,0.00,,,0.00,weatherlink.com 1.10,2013-01-09 02:23:00,
2013-01-08 21:38:00,34.4,31.0,30.02,SW,216,2.0,11.0,88,0.00,,,0.00,weatherlink.com 1.10,2013-01-09 02:38:00,
2013-01-08 21:53:00,34.1,31.0,30.01,SSW,195,6.0,10.0,88,0.00,,,0.00,weatherlink.com 1.10,2013-01-09 02:53:00,
2013-01-08 22:10:00,34.1,31.0,30.00,SSE,164,4.0,10.0,88,0.00,,,0.00,weatherlink.com 1.10,2013-01-09 03:10:00,
2013-01-08 22:23:00,34.2,31.0,30.00,SE,142,5.0,9.0,89,0.00,,,0.00,weatherlink.com 1.10,2013-01-09 03:23:00,
2013-01-08 22:38:00,34.3,31.0,30.00,SE,138,4.0,9.0,88,0.00,,,0.00,weatherlink.com 1.10,2013-01-09 03:38:00,
2013-01-08 22:53:00,34.3,31.0,30.00,SW,217,3.0,11.0,88,0.00,,,0.00,weatherlink.com 1.10,2013-01-09 03:53:00,
2013-01-08 23:08:00,34.1,31.0,29.99,SSE,160,6.0,11.0,88,0.00,,,0.00,weatherlink.com 1.10,2013-01-09 04:08:00,
2013-01-08 23:23:00,34.1,31.0,29.98,ESE,122,3.0,11.0,88,0.00,,,0.00,weatherlink.com 1.10,2013-01-09 04:23:00,
2013-01-08 23:38:00,33.8,31.0,29.98,SSE,154,5.0,10.0,88,0.00,,,0.00,weatherlink.com 1.10,2013-01-09 04:38:00,
2013-01-08 23:53:00,33.5,30.0,29.97,South,176,2.0,11.0,87,0.00,,,0.00,weatherlink.com 1.10,2013-01-09 04:53:00,